sat.trackr.live / text

‹ back to catalog

STARLINK-34148

NORAD 64111 · 2025-110R

PAYLOAD ACTIVE UNKNOWN

§ Identity

Operator
Country
US
Launch date
2025-05-23
Launch site
AFWTR
Launch vehicle
Mass (kg)
RCS (m²)

Purposes: comms

External: N2YO · Heavens-Above · Gunter

§ Orbital elements

Epoch: 2026-09-19T11:10:36.459264Z

Period
94.01 min
Inclination
53.1567°
Eccentricity
0.0001513
Mean motion
15.31711406 rev/d
Perigee alt
469.7 km
Apogee alt
471.7 km
Semi-major
6,848.8 km
B*
6.8163e-4
RAAN
205.0481°
Arg perigee
89.3254°
Mean anomaly
270.7921°
Rev number
7,557

§ Raw data

STARLINK-341481 64111U 25110R   26262.46569976  .00020853  00000+0  68163-3 0  99962 64111  53.1567 205.0481 0001513  89.3254 270.7921 15.31711406 75574

JSON: /api/v1/satellites/64111 · /tle

For live sub-satellite position, see the globe view (requires WebGL).

§ Visibility from observer

Set your observer location to see the next 7 days of passes ≥ 10°. The values pass through the URL so the page stays shareable.

No JS? Fill the form by hand. The geolocation button needs JavaScript.